Location: Taupo
(38.6830°S, 176.0830°E)
Time: 05:28:45
(UTC+12:00)

ISS - Visible Passes

Search period start: 15 August 2020 00:00
Search period end: 25 August 2020 00:00
Orbit: 418 x 420 km, 51.6° (Epoch: 15 August)

Date Brightness Start Highest point End Pass type
(mag) Time Alt. Az. Time Alt. Az. Time Alt. Az.
17 Aug -0.7 20:02:33 10° NW 20:02:51 12° NW 20:02:51 12° NW visible
18 Aug -3.0 19:15:09 10° NNW 19:17:52 40° NNE 19:17:52 40° NNE visible
19 Aug -2.4 18:28:04 10° N 18:30:54 25° NE 18:32:49 16° E visible
19 Aug -1.1 20:04:25 10° W 20:05:48 20° W 20:05:48 20° W visible
20 Aug -3.3 19:16:32 10° WNW 19:19:55 58° SW 19:20:37 46° SSE visible
21 Aug -3.8 18:28:52 10° NW 18:32:16 81° NE 18:35:18 13° SE visible
21 Aug -0.8 20:06:59 10° WSW 20:08:17 16° SW 20:08:17 16° SW visible
22 Aug -1.8 19:18:44 10° W 19:21:36 24° SSW 19:22:52 20° S visible
23 Aug -2.4 18:30:38 10° W 18:33:49 36° SSW 18:37:02 10° SE visible
23 Aug -0.5 20:10:05 10° SW 20:10:20 11° SSW 20:10:20 11° SSW visible
24 Aug -1.2 19:21:32 10° SW 19:23:29 14° SSW 19:24:45 12° S visible
